ITY9311 LIML-LICA

Flight info

Callsign ITY9311
Flight time 1h 21m
Altitude 37000
Route ABSEM6AXLOGDI7A/35 LOGDI DCT LOMED DCT TEA DCT EVINO/N0323F190 M620 ARBUM
Aircraft A20N/M-SDE2E3FGHIRWXY/LB1

Departure

Time 2026-04-20 19:52
Airport Milano Linate Airport (LIML)

Arrival

Time 2026-04-20 21:13
Airport Lamezia Terme Sant'Eufemia International Airport (LICA)
Time Latitude Longitude Altitude Speed Heading
2026-04-20 19:28 45.45610 9.27895 362 ft 0 kts 90°
2026-04-20 19:46 45.45610 9.27899 361 ft 0 kts 90°
2026-04-20 19:46 45.45610 9.27912 361 ft 1 kts 90°
2026-04-20 19:46 45.45609 9.27938 362 ft 4 kts 95°
2026-04-20 19:46 45.45582 9.27973 362 ft 7 kts 169°
2026-04-20 19:47 45.45514 9.27978 361 ft 11 kts 180°
2026-04-20 19:47 45.45419 9.27977 361 ft 15 kts 179°
2026-04-20 19:47 45.45325 9.27933 360 ft 15 kts 207°
2026-04-20 19:47 45.45215 9.27872 359 ft 18 kts 187°
2026-04-20 19:48 45.45080 9.27880 358 ft 19 kts 175°
2026-04-20 19:48 45.44956 9.27897 358 ft 16 kts 167°
2026-04-20 19:48 45.44837 9.27941 357 ft 18 kts 172°
2026-04-20 19:48 45.44696 9.27956 356 ft 20 kts 175°
2026-04-20 19:49 45.44555 9.27969 355 ft 18 kts 177°
2026-04-20 19:49 45.44418 9.27985 353 ft 21 kts 175°
2026-04-20 19:49 45.44267 9.28002 352 ft 21 kts 175°
2026-04-20 19:49 45.44116 9.28019 350 ft 22 kts 175°
2026-04-20 19:50 45.43951 9.28035 349 ft 24 kts 175°
2026-04-20 19:50 45.43802 9.28052 347 ft 21 kts 176°
2026-04-20 19:50 45.43646 9.28069 346 ft 22 kts 175°
2026-04-20 19:50 45.43520 9.28082 345 ft 16 kts 175°
2026-04-20 19:51 45.43448 9.27996 344 ft 15 kts 262°
2026-04-20 19:51 45.43441 9.27843 344 ft 10 kts 268°
2026-04-20 19:51 45.43470 9.27814 344 ft 3 kts 360°
2026-04-20 19:51 45.43538 9.27811 345 ft 34 kts 355°
2026-04-20 19:52 45.44054 9.27754 350 ft 111 kts 356°
2026-04-20 19:52 45.45040 9.27651 413 ft 164 kts 355°
2026-04-20 19:52 45.46174 9.27574 1046 ft 167 kts
2026-04-20 19:52 45.47344 9.27697 1785 ft 169 kts
2026-04-20 19:53 45.48508 9.27888 2496 ft 174 kts
2026-04-20 19:53 45.49751 9.28090 3095 ft 186 kts
2026-04-20 19:53 45.51028 9.28374 3846 ft 189 kts 19°
2026-04-20 19:53 45.51976 9.29578 4568 ft 192 kts 64°
2026-04-20 19:54 45.52136 9.31452 5321 ft 196 kts 98°
2026-04-20 19:54 45.51617 9.33249 5987 ft 205 kts 120°
2026-04-20 19:54 45.50773 9.34988 6487 ft 221 kts 124°
2026-04-20 19:54 45.49850 9.36832 6943 ft 241 kts 124°
2026-04-20 19:55 45.48848 9.38904 7363 ft 264 kts 123°
2026-04-20 19:55 45.47792 9.41133 7896 ft 283 kts 123°
2026-04-20 19:55 45.46660 9.43504 8603 ft 294 kts 123°
2026-04-20 19:55 45.45497 9.45944 9479 ft 298 kts 123°
2026-04-20 19:56 45.44325 9.48412 10319 ft 303 kts 123°
2026-04-20 19:56 45.43126 9.50939 10854 ft 319 kts 123°
2026-04-20 19:56 45.42359 9.52554 11211 ft 326 kts 123°
2026-04-20 19:56 45.41219 9.54955 11897 ft 332 kts 124°
2026-04-20 19:57 45.39928 9.57670 12706 ft 336 kts 124°
2026-04-20 19:57 45.38594 9.60417 13487 ft 341 kts 128°
2026-04-20 19:57 45.36966 9.62875 14217 ft 345 kts 140°
2026-04-20 19:57 45.35013 9.64877 14937 ft 348 kts 149°
2026-04-20 19:58 45.32933 9.66692 15633 ft 353 kts 152°
2026-04-20 19:58 45.30794 9.68509 16318 ft 359 kts 152°
2026-04-20 19:58 45.28623 9.70360 16988 ft 364 kts 152°
2026-04-20 19:58 45.26423 9.72247 17653 ft 369 kts 152°
2026-04-20 19:59 45.24215 9.74150 18285 ft 374 kts 151°
2026-04-20 19:59 45.21981 9.76083 18883 ft 379 kts 151°
2026-04-20 19:59 45.19696 9.78064 19542 ft 383 kts 152°
2026-04-20 19:59 45.17394 9.80058 20184 ft 387 kts 152°
2026-04-20 20:00 45.15097 9.82047 20811 ft 391 kts 152°
2026-04-20 20:00 45.12735 9.84091 21447 ft 394 kts 152°
2026-04-20 20:00 45.10377 9.86130 22060 ft 398 kts 152°
2026-04-20 20:00 45.08023 9.88161 22651 ft 402 kts 152°
2026-04-20 20:01 45.05594 9.90256 23239 ft 405 kts 152°
2026-04-20 20:01 45.03182 9.92332 23823 ft 409 kts 152°
2026-04-20 20:01 45.00733 9.94441 24376 ft 413 kts 152°
2026-04-20 20:01 44.98280 9.96553 24933 ft 417 kts 152°
2026-04-20 20:02 44.95782 9.98699 25485 ft 421 kts 152°
2026-04-20 20:02 44.93261 10.00866 26024 ft 424 kts 153°
2026-04-20 20:02 44.90719 10.03045 26547 ft 428 kts 153°
2026-04-20 20:02 44.88132 10.05260 27046 ft 431 kts 153°
2026-04-20 20:03 44.85560 10.07462 27511 ft 435 kts 153°
2026-04-20 20:03 44.82941 10.09698 27956 ft 439 kts 153°
2026-04-20 20:03 44.80299 10.11956 28411 ft 442 kts 153°
2026-04-20 20:03 44.77663 10.14203 28846 ft 444 kts 153°
2026-04-20 20:04 44.74996 10.16477 29253 ft 447 kts 153°
2026-04-20 20:04 44.72362 10.18829 29648 ft 451 kts 150°
2026-04-20 20:04 44.69785 10.21450 30020 ft 456 kts 146°
2026-04-20 20:04 44.67310 10.24306 30380 ft 460 kts 143°
2026-04-20 20:05 44.64861 10.27236 30723 ft 463 kts 143°
2026-04-20 20:05 44.62390 10.30200 31035 ft 465 kts 143°
2026-04-20 20:05 44.59898 10.33184 31314 ft 468 kts 143°
2026-04-20 20:05 44.57424 10.36134 31607 ft 471 kts 143°
2026-04-20 20:06 44.54884 10.39159 31906 ft 473 kts 143°
2026-04-20 20:06 44.52364 10.42151 32240 ft 474 kts 143°
2026-04-20 20:06 44.49842 10.45141 32641 ft 473 kts 143°
2026-04-20 20:06 44.47299 10.48150 33024 ft 472 kts 143°
2026-04-20 20:07 44.44783 10.51127 33377 ft 472 kts 143°
2026-04-20 20:07 44.42265 10.54101 33744 ft 472 kts 143°
2026-04-20 20:07 44.39727 10.57092 34074 ft 472 kts 143°
2026-04-20 20:07 44.37181 10.60090 34406 ft 472 kts 143°
2026-04-20 20:08 44.34692 10.63020 34729 ft 472 kts 143°
2026-04-20 20:08 44.32150 10.66007 35013 ft 471 kts 144°
2026-04-20 20:08 44.29677 10.68909 35261 ft 471 kts 144°
2026-04-20 20:08 44.27125 10.71898 35498 ft 471 kts 144°
2026-04-20 20:09 44.24702 10.74735 35708 ft 472 kts 144°
2026-04-20 20:09 44.22133 10.77739 35912 ft 473 kts 144°
2026-04-20 20:09 44.19598 10.80702 36108 ft 474 kts 144°
2026-04-20 20:09 44.17077 10.83644 36298 ft 475 kts 144°
2026-04-20 20:10 44.14532 10.86610 36489 ft 475 kts 143°
2026-04-20 20:10 44.11952 10.89616 36705 ft 476 kts 143°
2026-04-20 20:10 44.09391 10.92596 36914 ft 477 kts 143°
2026-04-20 20:11 44.04237 10.98579 36939 ft 478 kts 143°
2026-04-20 20:11 43.99076 11.04538 36943 ft 478 kts 143°
2026-04-20 20:12 43.93948 11.10425 36959 ft 478 kts 144°
2026-04-20 20:12 43.88756 11.16372 36945 ft 477 kts 144°
2026-04-20 20:13 43.81107 11.25115 36938 ft 477 kts 143°
2026-04-20 20:13 43.75957 11.30985 36935 ft 477 kts 143°
2026-04-20 20:14 43.70787 11.36865 36935 ft 477 kts 143°
2026-04-20 20:14 43.65630 11.42717 36932 ft 477 kts 144°
2026-04-20 20:15 43.60451 11.48582 36930 ft 477 kts 143°
2026-04-20 20:15 43.55289 11.54410 36934 ft 477 kts 143°
2026-04-20 20:16 43.50087 11.60270 36930 ft 476 kts 143°
2026-04-20 20:16 43.44933 11.66066 36929 ft 476 kts 144°
2026-04-20 20:17 43.39797 11.71830 36933 ft 476 kts 144°
2026-04-20 20:17 43.34633 11.77609 36936 ft 476 kts 144°
2026-04-20 20:18 43.29454 11.83392 36936 ft 476 kts 144°
2026-04-20 20:18 43.24297 11.89139 36934 ft 475 kts 144°
2026-04-20 20:19 43.19105 11.94908 36937 ft 475 kts 144°
2026-04-20 20:19 43.13977 12.00596 36941 ft 475 kts 144°
2026-04-20 20:20 43.08787 12.06339 36941 ft 476 kts 144°
2026-04-20 20:20 43.03621 12.12046 36941 ft 476 kts 144°
2026-04-20 20:21 42.98447 12.17747 36942 ft 475 kts 144°
2026-04-20 20:21 42.93271 12.23437 36951 ft 475 kts 144°
2026-04-20 20:22 42.88116 12.29091 36963 ft 475 kts 144°
2026-04-20 20:22 42.82933 12.34760 36968 ft 475 kts 144°
2026-04-20 20:23 42.77748 12.40423 36965 ft 475 kts 144°
2026-04-20 20:23 42.72588 12.46048 36963 ft 475 kts 144°
2026-04-20 20:24 42.67402 12.51684 36970 ft 475 kts 144°
2026-04-20 20:24 42.62210 12.57318 36978 ft 475 kts 144°
2026-04-20 20:25 42.57008 12.62951 36976 ft 474 kts 144°
2026-04-20 20:25 42.51872 12.68498 36976 ft 474 kts 144°
2026-04-20 20:26 42.46608 12.74169 36981 ft 474 kts 144°
2026-04-20 20:26 42.41413 12.79755 36989 ft 474 kts 144°
2026-04-20 20:27 42.36173 12.85378 36997 ft 474 kts 144°
2026-04-20 20:27 42.30967 12.90953 36998 ft 474 kts 144°
2026-04-20 20:28 42.25754 12.96521 37001 ft 474 kts 144°
2026-04-20 20:28 42.20530 13.02089 37001 ft 475 kts 144°
2026-04-20 20:29 42.15282 13.07672 36994 ft 476 kts 144°
2026-04-20 20:29 42.10031 13.13248 37002 ft 475 kts 144°
2026-04-20 20:30 42.04817 13.18771 36996 ft 475 kts 144°
2026-04-20 20:30 41.99572 13.24314 37011 ft 475 kts 144°
2026-04-20 20:31 41.94367 13.29801 37007 ft 475 kts 144°
2026-04-20 20:31 41.89095 13.35347 37001 ft 475 kts 144°
2026-04-20 20:32 41.83831 13.40875 37007 ft 475 kts 144°
2026-04-20 20:32 41.78591 13.46368 36999 ft 475 kts 144°
2026-04-20 20:33 41.73349 13.51850 37016 ft 474 kts 144°
2026-04-20 20:33 41.68103 13.57321 37022 ft 474 kts 144°
2026-04-20 20:34 41.62867 13.62773 37010 ft 474 kts 144°
2026-04-20 20:34 41.57618 13.68228 37006 ft 474 kts 145°
2026-04-20 20:35 41.52353 13.73686 36994 ft 474 kts 145°
2026-04-20 20:35 41.47150 13.79072 36992 ft 474 kts 145°
2026-04-20 20:36 41.41883 13.84511 36995 ft 473 kts 145°
2026-04-20 20:36 41.36637 13.89915 36996 ft 474 kts 145°
2026-04-20 20:37 41.31399 13.95301 37000 ft 474 kts 145°
2026-04-20 20:37 41.25985 14.00337 37010 ft 472 kts 150°
2026-04-20 20:38 41.20440 14.05174 37005 ft 471 kts 150°
2026-04-20 20:38 41.14914 14.09989 37006 ft 470 kts 150°
2026-04-20 20:39 41.09402 14.14792 37009 ft 470 kts 150°
2026-04-20 20:39 41.03900 14.19576 37008 ft 471 kts 150°
2026-04-20 20:40 40.98379 14.24372 37005 ft 471 kts 150°
2026-04-20 20:40 40.92837 14.29178 37012 ft 471 kts 150°
2026-04-20 20:41 40.87325 14.33945 37001 ft 471 kts 150°
2026-04-20 20:41 40.81803 14.38712 37000 ft 470 kts 150°
2026-04-20 20:42 40.76303 14.43449 37008 ft 471 kts 150°
2026-04-20 20:42 40.70788 14.48189 37003 ft 471 kts 150°
2026-04-20 20:43 40.65281 14.52918 37001 ft 470 kts 150°
2026-04-20 20:43 40.59759 14.57645 37006 ft 470 kts 149°
2026-04-20 20:44 40.54265 14.62342 37009 ft 470 kts 150°
2026-04-20 20:44 40.48754 14.67043 37005 ft 470 kts 150°
2026-04-20 20:45 40.43201 14.71770 37007 ft 470 kts 150°
2026-04-20 20:45 40.37727 14.76419 37007 ft 469 kts 150°
2026-04-20 20:46 40.33338 14.80141 37003 ft 469 kts 150°
2026-04-20 20:46 40.28169 14.84518 37002 ft 469 kts 150°
2026-04-20 20:47 40.22687 14.89151 36999 ft 469 kts 150°
2026-04-20 20:47 40.17174 14.93799 37005 ft 469 kts 150°
2026-04-20 20:48 40.11698 14.98408 36998 ft 470 kts 150°
2026-04-20 20:48 40.06194 15.03033 37002 ft 469 kts 150°
2026-04-20 20:49 40.00708 15.07634 36999 ft 468 kts 150°
2026-04-20 20:49 39.95223 15.12223 37003 ft 468 kts 150°
2026-04-20 20:50 39.89740 15.16801 37008 ft 468 kts 150°
2026-04-20 20:50 39.86961 15.19121 36887 ft 464 kts 150°
2026-04-20 20:50 39.84266 15.21368 36393 ft 462 kts 150°
2026-04-20 20:51 39.81530 15.23645 35864 ft 461 kts 150°
2026-04-20 20:51 39.78851 15.25873 35399 ft 459 kts 150°
2026-04-20 20:51 39.76136 15.28128 34915 ft 458 kts 150°
2026-04-20 20:51 39.73482 15.30345 34388 ft 458 kts 148°
2026-04-20 20:52 39.70866 15.32746 33760 ft 460 kts 145°
2026-04-20 20:52 39.68355 15.35371 33110 ft 461 kts 141°
2026-04-20 20:52 39.65935 15.38062 32451 ft 462 kts 141°
2026-04-20 20:52 39.63478 15.40817 31759 ft 463 kts 141°
2026-04-20 20:53 39.61034 15.43552 31061 ft 464 kts 141°
2026-04-20 20:53 39.58599 15.46268 30353 ft 466 kts 141°
2026-04-20 20:53 39.56124 15.49023 29572 ft 467 kts 141°
2026-04-20 20:53 39.53674 15.51744 28750 ft 469 kts 141°
2026-04-20 20:54 39.51182 15.54508 27661 ft 476 kts 141°
2026-04-20 20:54 39.48652 15.57309 26367 ft 487 kts 140°
2026-04-20 20:54 39.46079 15.60156 25287 ft 490 kts 140°
2026-04-20 20:54 39.43483 15.63027 24778 ft 480 kts 140°
2026-04-20 20:55 39.40968 15.65811 24530 ft 466 kts 141°
2026-04-20 20:55 39.38534 15.68501 24119 ft 456 kts 141°
2026-04-20 20:55 39.36126 15.71156 23523 ft 452 kts 141°
2026-04-20 20:55 39.33731 15.73794 22912 ft 448 kts 141°
2026-04-20 20:56 39.31378 15.76380 22321 ft 444 kts 141°
2026-04-20 20:56 39.29019 15.78973 21718 ft 440 kts 141°
2026-04-20 20:56 39.26702 15.81514 21129 ft 437 kts 141°
2026-04-20 20:56 39.24399 15.84032 20541 ft 434 kts 141°
2026-04-20 20:57 39.22084 15.86559 19960 ft 430 kts 141°
2026-04-20 20:57 39.19863 15.89076 19399 ft 426 kts 137°
2026-04-20 20:57 39.17732 15.91753 18850 ft 422 kts 136°
2026-04-20 20:57 39.15641 15.94432 18302 ft 418 kts 136°
2026-04-20 20:58 39.13586 15.97072 17756 ft 414 kts 136°
2026-04-20 20:58 39.11557 15.99676 17227 ft 411 kts 136°
2026-04-20 20:58 39.09532 16.02269 16697 ft 407 kts 136°
2026-04-20 20:58 39.07539 16.04816 16175 ft 403 kts 136°
2026-04-20 20:59 39.05523 16.07386 15642 ft 399 kts 136°
2026-04-20 20:59 39.03552 16.09897 15119 ft 395 kts 136°
2026-04-20 20:59 39.01604 16.12377 14613 ft 391 kts 136°
2026-04-20 20:59 38.99691 16.14811 14113 ft 387 kts 136°
2026-04-20 21:00 38.97765 16.17263 13614 ft 383 kts 136°
2026-04-20 21:00 38.95861 16.19679 13098 ft 380 kts 136°
2026-04-20 21:00 38.93991 16.22050 12601 ft 376 kts 135°
2026-04-20 21:00 38.92114 16.24432 12077 ft 373 kts 135°
2026-04-20 21:01 38.90443 16.26911 11601 ft 368 kts 126°
2026-04-20 21:01 38.89055 16.29665 11385 ft 356 kts 119°
2026-04-20 21:01 38.87874 16.32378 11181 ft 344 kts 118°
2026-04-20 21:01 38.86740 16.35063 10958 ft 333 kts 117°
2026-04-20 21:02 38.85827 16.37219 10788 ft 324 kts 117°
2026-04-20 21:02 38.85057 16.39029 10646 ft 317 kts 117°
2026-04-20 21:02 38.84009 16.41484 10440 ft 307 kts 118°
2026-04-20 21:02 38.82992 16.43850 10131 ft 303 kts 118°
2026-04-20 21:03 38.81971 16.46220 9754 ft 300 kts 118°
2026-04-20 21:03 38.80977 16.48518 9172 ft 296 kts 118°
2026-04-20 21:03 38.79979 16.50825 8451 ft 294 kts 118°
2026-04-20 21:03 38.79023 16.53112 7749 ft 292 kts 113°
2026-04-20 21:04 38.78375 16.55583 7132 ft 291 kts 101°
2026-04-20 21:04 38.78030 16.58105 6774 ft 287 kts 97°
2026-04-20 21:04 38.77747 16.60597 6537 ft 279 kts 95°
2026-04-20 21:04 38.77851 16.62988 6338 ft 267 kts 67°
2026-04-20 21:05 38.78928 16.64830 6153 ft 251 kts 30°
2026-04-20 21:05 38.80526 16.65542 5990 ft 238 kts
2026-04-20 21:05 38.82140 16.65754 5835 ft 230 kts
2026-04-20 21:05 38.83699 16.65846 5665 ft 220 kts 348°
2026-04-20 21:06 38.85054 16.65050 5487 ft 210 kts 317°
2026-04-20 21:06 38.85865 16.63559 5320 ft 203 kts 289°
2026-04-20 21:06 38.86143 16.61813 5110 ft 199 kts 279°
2026-04-20 21:06 38.86330 16.60056 4833 ft 199 kts 279°
2026-04-20 21:07 38.86524 16.58289 4552 ft 198 kts 280°
2026-04-20 21:07 38.86715 16.56600 4464 ft 184 kts 280°
2026-04-20 21:07 38.86899 16.55019 4281 ft 175 kts 281°
2026-04-20 21:07 38.87078 16.53507 4100 ft 166 kts 281°
2026-04-20 21:08 38.87247 16.52078 3936 ft 157 kts 282°
2026-04-20 21:08 38.87407 16.50738 3721 ft 150 kts 282°
2026-04-20 21:08 38.87566 16.49420 3572 ft 149 kts 282°
2026-04-20 21:08 38.87724 16.48102 3388 ft 149 kts 282°
2026-04-20 21:09 38.87880 16.46800 3191 ft 148 kts 282°
2026-04-20 21:09 38.88038 16.45487 2996 ft 148 kts 282°
2026-04-20 21:09 38.88194 16.44182 2807 ft 148 kts 282°
2026-04-20 21:09 38.88351 16.42864 2607 ft 147 kts 282°
2026-04-20 21:10 38.88506 16.41566 2414 ft 147 kts 282°
2026-04-20 21:10 38.88660 16.40263 2215 ft 146 kts 282°
2026-04-20 21:10 38.88814 16.38957 2018 ft 146 kts 282°
2026-04-20 21:10 38.88966 16.37667 1823 ft 145 kts 282°
2026-04-20 21:11 38.89115 16.36402 1629 ft 144 kts 282°
2026-04-20 21:11 38.89269 16.35112 1443 ft 144 kts 282°
2026-04-20 21:11 38.89418 16.33842 1255 ft 143 kts 281°
2026-04-20 21:11 38.89570 16.32556 1058 ft 143 kts 280°
2026-04-20 21:12 38.89718 16.31289 869 ft 142 kts 279°
2026-04-20 21:12 38.89864 16.30046 682 ft 142 kts 279°
2026-04-20 21:12 38.90009 16.28781 496 ft 142 kts 278°
2026-04-20 21:12 38.90156 16.27524 312 ft 141 kts 278°
2026-04-20 21:13 38.90297 16.26281 127 ft 139 kts 278°
2026-04-20 21:13 38.90439 16.25084 39 ft 125 kts 281°
2026-04-20 21:13 38.90538 16.24250 29 ft 44 kts 277°
2026-04-20 21:13 38.90569 16.23993 27 ft 27 kts 277°
2026-04-20 21:14 38.90599 16.23758 25 ft 26 kts 287°
2026-04-20 21:14 38.90687 16.23566 23 ft 12 kts 310°
2026-04-20 21:14 38.90698 16.23550 23 ft 3 kts 310°
2026-04-20 21:14 38.90728 16.23506 23 ft 7 kts 318°
2026-04-20 21:15 38.90777 16.23484 24 ft 8 kts
2026-04-20 21:15 38.90829 16.23530 25 ft 10 kts 60°
2026-04-20 21:15 38.90831 16.23640 26 ft 14 kts 98°
2026-04-20 21:15 38.90815 16.23781 27 ft 16 kts 98°
2026-04-20 21:16 38.90797 16.23926 28 ft 16 kts 98°
2026-04-20 21:16 38.90781 16.24066 30 ft 15 kts 98°
2026-04-20 21:16 38.90796 16.24190 32 ft 14 kts 56°
2026-04-20 21:16 38.90827 16.24297 35 ft 12 kts 95°
2026-04-20 21:17 38.90824 16.24350 35 ft 3 kts 71°
2026-04-20 21:17 38.90848 16.24362 35 ft 4 kts 357°
2026-04-20 21:17 38.90877 16.24366 36 ft 2 kts 36°
2026-04-20 21:17 38.90883 16.24374 36 ft 0 kts 47°